Weather History for LIRF - November, 2012

Change the Weather History Date:

Friday, November 9, 2012

  Actual Average Record
Temperature  
Mean Temperature 54 °F -  
Max Temperature 64 °F 61 °F 73 °F (2013)
Min Temperature 44 °F 45 °F 33 °F (2004)
Degree Days  
Heating Degree Days 11    
Growing Degree Days 4 (Base 50)    
Moisture  
Dew Point 47 °F    
Average Humidity 81    
Maximum Humidity 100    
Minimum Humidity 55    
Precipitation  
Precipitation 0.00 in 0.14 in - ()
Sea Level Pressure  
Sea Level Pressure 30.13 in    
Wind  
Wind Speed 4 mph ()    
Max Wind Speed 8 mph    
Max Gust Speed -    
Visibility 5.1 miles    
Events      
Averages and records for this station are not official NWS values.
T = Trace of Precipitation, MM = Missing Value Source: Averaged Metar Reports

Daily Weather History Graph

Daily Weather History Graph

Search for Another Location

Airport or City:

Trip Planner

Search our weather history database for the weather conditions in past years. The results will help you decide how hot, cold, wet, or windy it might be!

Date:

Astronomy

Nov. 09, 2012 Rise Set
Actual Time 6:53 AM CET 4:55 PM CET
Civil Twilight 6:23 AM CET 5:25 PM CET
Nautical Twilight 5:50 AM CET 5:58 PM CET
Astronomical Twilight 5:17 AM CET 6:31 PM CET
Moon 1:29 AM CET (11/9) 2:03 PM CET (11/9)
Length of Visible Light 11h 01m
Length of Day
10h 02m
Waning Crescent, 25% of the Moon is Illuminated
Nov 9
Waning Crescent
Nov 13
New
Nov 20
First Quarter
Nov 28
Full
Dec 6
Last Quarter

Hourly Weather History & Observations

Time (CET) Temp. Windchill Dew Point Humidity Pressure Visibility Wind Dir Wind Speed Gust Speed Precip Events Conditions
12:20 AM 46.4 °F 45.2 °F 44.6 °F 93% 30.18 in 5.6 mi ENE 3.5 mph - N/A   Unknown
12:50 AM 46.4 °F 45.2 °F 44.6 °F 93% 30.18 in 5.0 mi NE 3.5 mph - N/A   Unknown
1:20 AM 46.4 °F 44.3 °F 44.6 °F 93% 30.18 in 5.0 mi East 4.6 mph - N/A   Unknown
1:50 AM 44.6 °F 43.1 °F 44.6 °F 100% 30.15 in 5.0 mi East 3.5 mph - N/A   Unknown
2:20 AM 44.6 °F 41.4 °F 42.8 °F 93% 30.15 in 5.0 mi East 5.8 mph - N/A   Unknown
2:50 AM 44.6 °F 41.4 °F 44.6 °F 100% 30.15 in - East 5.8 mph - N/A   Clear
3:20 AM 44.6 °F 43.1 °F 42.8 °F 93% 30.15 in - East 3.5 mph - N/A   Clear
3:50 AM 44.6 °F 43.1 °F 42.8 °F 93% 30.15 in - ENE 3.5 mph - N/A   Clear
4:20 AM 44.6 °F 42.2 °F 42.8 °F 93% 30.12 in - East 4.6 mph - N/A   Clear
4:50 AM 44.6 °F 41.4 °F 42.8 °F 93% 30.15 in - East 5.8 mph - N/A   Clear
5:20 AM 44.6 °F 43.1 °F 42.8 °F 93% 30.15 in - ENE 3.5 mph - N/A   Clear
5:50 AM 44.6 °F 43.1 °F 42.8 °F 93% 30.12 in - East 3.5 mph - N/A   Clear
6:20 AM 44.6 °F 43.1 °F 42.8 °F 93% 30.12 in - NE 3.5 mph - N/A   Clear
6:50 AM 44.6 °F 42.2 °F 42.8 °F 93% 30.15 in - NE 4.6 mph - N/A   Clear
7:20 AM 44.6 °F 43.1 °F 42.8 °F 93% 30.15 in - ENE 3.5 mph - N/A   Clear
7:50 AM 46.4 °F 44.3 °F 44.6 °F 93% 30.15 in - East 4.6 mph - N/A   Clear
8:20 AM 48.2 °F - 46.4 °F 93% 30.15 in - East 4.6 mph - N/A   Clear
8:50 AM 50.0 °F - 46.4 °F 87% 30.15 in - ENE 5.8 mph - N/A   Clear
9:20 AM 53.6 °F - 48.2 °F 82% 30.15 in - ENE 6.9 mph - N/A   Clear
9:50 AM 53.6 °F - 48.2 °F 82% 30.15 in - ENE 8.1 mph - N/A   Clear
10:20 AM 57.2 °F - 48.2 °F 72% 30.15 in - ENE 5.8 mph - N/A   Clear
10:50 AM 59.0 °F - 50.0 °F 72% 30.15 in - Variable 2.3 mph - N/A   Clear
11:20 AM 60.8 °F - 50.0 °F 68% 30.15 in - East 4.6 mph - N/A   Clear
11:50 AM 60.8 °F - 50.0 °F 68% 30.15 in - Variable 3.5 mph - N/A   Clear
12:20 PM 62.6 °F - 50.0 °F 63% 30.12 in - Variable 3.5 mph - N/A   Clear
12:50 PM 62.6 °F - 46.4 °F 55% 30.12 in - Variable 3.5 mph - N/A   Clear
1:20 PM 64.4 °F - 48.2 °F 56% 30.12 in - Variable 2.3 mph - N/A   Clear
1:50 PM 64.4 °F - 50.0 °F 59% 30.09 in - Variable 3.5 mph - N/A   Clear
2:20 PM 64.4 °F - 50.0 °F 59% 30.09 in - Variable 2.3 mph - N/A   Clear
2:50 PM 64.4 °F - 50.0 °F 59% 30.09 in - WSW 5.8 mph - N/A   Clear
3:20 PM 62.6 °F - 50.0 °F 63% 30.09 in - West 5.8 mph - N/A   Clear
3:50 PM 62.6 °F - 50.0 °F 63% 30.09 in - West 5.8 mph - N/A   Clear
4:20 PM 62.6 °F - 51.8 °F 68% 30.09 in - Variable 2.3 mph - N/A   Clear
4:50 PM 59.0 °F - 51.8 °F 77% 30.09 in - West 4.6 mph - N/A   Clear
5:20 PM 59.0 °F - 50.0 °F 72% 30.09 in - WNW 3.5 mph - N/A   Clear
5:50 PM 57.2 °F - 50.0 °F 77% 30.09 in - North 3.5 mph - N/A   Clear
6:20 PM 57.2 °F - 50.0 °F 77% 30.12 in - NNE 2.3 mph - N/A   Clear
8:50 PM 53.6 °F - 50.0 °F 88% 30.09 in - Variable 3.5 mph - N/A   Clear
9:20 PM 55.4 °F - 50.0 °F 82% 30.09 in - East 4.6 mph - N/A   Clear
9:50 PM 53.6 °F - 50.0 °F 88% 30.09 in - East 4.6 mph - N/A   Clear
10:20 PM 51.8 °F - 48.2 °F 88% 30.12 in - NE 4.6 mph - N/A   Clear
10:50 PM 51.8 °F - 48.2 °F 88% 30.09 in - Variable 2.3 mph - N/A   Clear
11:20 PM 50.0 °F - 46.4 °F 87% 30.09 in - East 6.9 mph - N/A   Clear
11:50 PM 50.0 °F - 46.4 °F 87% 30.09 in - ENE 4.6 mph - N/A   Clear